Location: Cognat
(46.1085°N, 3.3079°E)
Time: 05:16:53
(UTC+00:00)

Daily predictions for brighter satellites

Satellite Brightness Start Highest point End
(mag) Time Altitude Azimuth Time Altitude Azimuth Time Altitude Azimuth
USA 234 4.4 01:59:31 10° E 02:03:27 36° ENE 02:03:27 36° ENE
Cosmos 2322 Rocket 4.2 02:20:05 23° NNE 02:20:05 23° NNE 02:22:07 10° NNE
Cosmos 2360 Rocket 3.7 02:30:10 32° NE 02:30:10 32° NE 02:33:13 10° NNE
CENTAUR R/B 4.5 02:24:25 17° NNW 02:29:17 32° NNE 02:36:40 10° E
COSMOS 2455 4.1 02:31:45 37° E 02:31:45 37° E 02:36:10 10° NE
Cosmos 1980 Rocket 4.5 02:37:05 15° N 02:37:05 15° N 02:38:18 10° N
USA 238 DEB 4.5 02:37:11 39° N 02:39:24 52° NE 02:46:33 10° ESE
USA 238 4.5 02:37:15 39° N 02:39:30 51° NE 02:46:39 10° ESE
Cosmos 2278 Rocket 3.9 03:00:25 10° N 03:05:23 30° NE 03:10:18 10° ESE
NOSS 3-2 (A) 4.3 03:01:02 25° NNW 03:05:41 63° NE 03:13:55 10° SE
Cosmos 2333 Rocket 3.2 03:06:30 38° SE 03:07:32 42° ESE 03:12:52 10° NE
USA 267 3.1 03:07:55 10° NE 03:14:27 74° NNW 03:14:41 73° NW
ADEOS II 3.8 03:13:58 10° N 03:15:59 22° N 03:15:59 22° N
Cosmos 2333 4.2 03:22:16 78° ESE 03:22:17 78° ESE 03:27:56 10° NNE
ARIANE 5 R/B 4.4 03:23:15 10° N 03:24:45 18° NNW 03:24:45 18° NNW
NOSS 3-2 (C) 4.4 03:21:50 14° NNW 03:28:14 60° NE 03:36:27 10° SE
SL-16 R/B 3.7 03:30:46 23° NNW 03:30:46 23° NNW 03:33:50 10° N
CZ-2C R/B 4.4 03:25:12 10° NE 03:29:41 29° E 03:34:08 10° SSE
Cosmos 2322 3.6 03:31:45 76° NW 03:31:45 76° NW 03:37:22 10° NNE
BREEZE-M DEB (TANK) 4.2 03:37:12 23° SSE 03:37:12 23° SSE 03:38:18 10° SE
Cosmos 1709 Rocket 3.9 03:36:00 46° SSW 03:38:01 84° W 03:44:25 10° N
Cosmos 2219 Rocket 2.2 03:38:52 49° S 03:40:22 75° ESE 03:45:58 10° NNE
SL-08 ROCKET BODY 4.5 03:45:28 53° WNW 03:45:28 53° WNW 03:50:56 10° N
Cosmos 2237 Rocket 3.7 03:42:26 10° S 03:47:30 35° ESE 03:52:37 10° NE
USA 234 3.2 03:42:18 10° SE 03:48:46 64° SW 03:50:48 44° WNW
NOSS 2-2 (D) 3.5 03:49:47 66° ENE 03:49:47 66° ENE 03:53:27 10° NE
Meteor 2-21 Rocket 4.5 03:49:55 53° W 03:50:28 55° WNW 03:56:35 10° N
IDEFIX/ARIANE 42P 2.4 03:48:51 10° NNE 03:54:07 80° WNW 03:55:58 42° SSW
Cosmos 292 Rocket 4.2 03:50:52 10° NNW 03:55:38 61° ENE 04:00:23 10° SSE
COSMOS 2428 2.6 03:56:23 43° SW 03:58:21 82° WNW 04:04:04 10° NNE
Cosmos 44 3.9 03:55:54 22° NNW 03:58:29 47° NE 04:02:38 10° ESE
PAYLOAD A 4.3 03:54:50 10° NNE 03:59:36 62° ESE 04:04:31 10° S
Meteor 1-31 Rocket 4.3 03:56:40 10° NNE 04:00:12 35° E 04:03:42 10° SSE
Cosmos 1992 Rocket 4.2 04:01:04 49° SW 04:01:04 49° SW 04:05:23 10° S
Cosmos 2322 Rocket 3.8 04:01:54 18° NW 04:01:54 18° NW 04:05:14 10° N
H-2A R/B 2.5 03:58:45 10° NNE 04:02:53 81° ESE 04:04:58 30° S
BREEZE-M DEB (TANK) 3.5 04:04:48 33° NE 04:04:48 33° NE 04:06:12 10° ENE
ATLAS 3B R/B 3.1 04:01:00 10° NW 04:07:39 63° NE 04:14:25 10° SE
Cosmos 1470 3.2 04:03:59 10° N 04:07:54 62° E 04:11:46 10° SSE
Cosmos 1842 3.3 04:11:45 57° NW 04:11:45 57° NW 04:15:21 10° N
Cosmos 1707 4.0 04:08:04 10° SSE 04:11:45 42° E 04:15:28 10° NNE
Cosmos 2360 Rocket 3.2 04:11:57 27° NW 04:12:04 27° NW 04:16:49 10° N
Cosmos 2251 Rocket 4.0 04:12:41 39° WNW 04:13:18 41° WNW 04:18:23 10° N
Cosmos 2074 Rocket 4.1 04:08:13 10° S 04:14:26 78° E 04:20:40 10° N
NOSS 0 Rocket 4.1 04:09:38 10° SSW 04:15:44 72° ESE 04:21:56 10° NNE
COSMOS 2455 3.3 04:14:56 35° W 04:16:30 42° NW 04:22:13 10° NNE
PSLV R/B 3.8 04:15:28 10° N 04:19:29 42° WNW 04:19:29 42° WNW
Cosmos 2181 Rocket 4.1 04:14:41 10° NNW 04:20:49 51° W 04:26:50 10° SSW
CENTAUR R/B 3.2 04:13:10 10° NW 04:21:10 82° NE 04:29:53 10° SE
Cosmos 2228 4.4 04:17:59 10° N 04:22:01 39° ENE 04:26:01 10° SE
Cosmos 1025 Rocket 2.9 04:20:29 30° SSW 04:22:25 59° W 04:26:40 10° N
NOSS 2-2 (C) 3.5 04:25:19 44° WNW 04:25:56 48° NW 04:30:03 10° NNE
ATLAS 2AS CENTAUR R/B 3.1 04:19:17 13° SW 04:26:37 90° NW 04:34:43 10° NE
USA 238 DEB 4.1 04:24:44 15° NW 04:30:21 45° WSW 04:37:18 10° S
USA 238 4.1 04:24:49 15° NW 04:30:28 46° WSW 04:37:25 10° S
Cosmos 921 Rocket 3.0 04:28:21 10° NNW 04:32:34 51° WSW 04:36:39 10° S
Cosmos 489 Rocket 4.4 04:31:34 10° NNW 04:37:46 69° WSW 04:43:58 10° S
Cosmos 1536 Rocket 4.1 04:37:00 28° WSW 04:38:26 35° WNW 04:42:27 10° N
SL-16 R/B 3.9 04:34:08 10° SSE 04:39:11 34° ESE 04:44:15 10° NE
Cosmos 1726 4.0 04:38:56 10° N 04:42:17 33° ENE 04:45:38 10° SE
Cosmos 1943 Rocket 4.5 04:39:47 10° N 04:44:05 22° NE 04:48:23 10° E
Aureole 1 Rocket 4.3 04:42:41 17° WSW 04:46:51 36° WNW 04:51:31 10° N
ADEOS 4.4 04:42:43 10° N 04:47:13 30° WNW 04:50:04 18° WSW
SKYMED 2 3.9 04:43:24 10° SSE 04:47:42 68° ENE 04:52:02 10° N
CZ-4B R/B 2.8 04:43:38 10° N 04:47:44 67° WNW 04:51:35 10° SSW
Cosmos 1190 Rocket 4.0 04:42:27 10° SSW 04:47:46 87° WNW 04:53:06 10° NNE
Cosmos 2297 4.5 04:42:22 10° NNW 04:48:02 55° ENE 04:53:40 10° SE
Cosmos 2278 Rocket 2.3 04:44:15 10° NW 04:49:44 52° WSW 04:55:12 10° S
Cosmos 407 Rocket 3.4 04:45:35 10° SSW 04:50:43 73° WNW 04:55:52 10° NNE
Cosmos 2333 Rocket 2.9 04:48:34 19° WSW 04:51:54 35° NW 04:57:07 10° NNE
Meteor 1-4 Rocket 2.3 04:52:59 10° SSW 04:56:30 85° W 05:00:00 10° N
USA 267 4.0 04:51:00 10° NE 04:56:57 39° NNW 05:02:02 14° WNW
Cosmos 1892 Rocket 4.0 04:52:44 10° S 04:57:08 66° E 05:01:32 10° NNE
ERBS 2.3 04:55:24 22° WSW 04:57:25 60° NW 05:00:47 10° NE
GP-B 3.2 04:53:06 10° S 04:57:32 80° E 05:01:59 10° N
MSX 4.4 04:58:06 10° N 05:03:14 35° WNW 05:08:21 10° SW
Cosmos 1437 Rocket 3.8 05:00:26 10° S 05:04:05 48° E 05:07:45 10° NNE
PSLV R/B 3.5 05:00:53 10° N 05:04:36 72° WNW 05:08:16 10° SSW
Cosmos 1953 2.6 05:03:04 10° NNW 05:06:57 45° W 05:10:46 10° SSW
CZ-2C R/B 2.9 05:03:09 10° N 05:08:01 41° WNW 05:12:50 10° SW
COBE Rocket 3.9 05:04:12 10° S 05:09:12 72° W 05:14:21 10° NNW
Helios 1A Rocket 3.4 05:05:52 10° NNE 05:10:00 65° ESE 05:14:08 10° S
Cosmos 1606 Rocket 3.6 05:06:06 10° NNW 05:10:19 53° W 05:14:30 10° S
Cosmos 1758 4.4 05:10:34 10° NW 05:13:43 22° W 05:16:51 10° SW
Cosmos 2154 Rocket 4.0 05:09:27 10° SSW 05:15:35 63° WNW 05:21:45 10° N
ALOS 2.6 05:15:27 10° NNE 05:20:08 72° ESE 05:24:47 10° S
MOS 1-B 4.3 05:14:30 10° NNE 05:20:19 75° WNW 05:26:07 10° SSW
Okean 1-7 Rocket 3.5 05:16:13 10° SSW 05:20:39 70° W 05:25:08 10° N
Cosmos 389 Rocket 3.4 05:20:44 10° SW 05:23:38 25° WNW 05:26:35 10° NNW
Cosmos 2219 Rocket 3.4 05:20:39 10° W 05:24:56 22° NW 05:29:13 10° N
Cosmos 1954 Rocket 4.0 05:21:26 10° SSW 05:26:40 72° WNW 05:31:54 10° NNE
CZ-4B DEB 4.2 05:23:26 10° N 05:28:55 73° WNW 05:34:20 10° SSW
SJ-12 3.9 05:27:00 10° N 05:31:03 61° WNW 05:35:05 10° SSW
PAYLOAD B 4.2 05:25:52 10° NNE 05:31:28 77° WNW 05:36:59 10° SSW
Cosmos 2237 Rocket 2.7 05:26:07 10° SW 05:31:28 41° NW 05:36:52 10° NNE
RESURS DK-1 2.4 05:27:24 10° SSW 05:31:33 88° ESE 05:35:42 10° NNE
IDEFIX/ARIANE 42P 4.3 05:30:27 10° NNW 05:32:52 13° NW 05:35:16 10° W
Meteor 1-31 Rocket 4.1 05:31:37 10° NNW 05:34:24 19° WNW 05:37:09 10° WSW
Cosmos 1626 Rocket 4.3 05:31:04 10° S 05:35:16 58° E 05:39:32 10° NNE
Nadezhda 3 Rocket 4.4 05:29:55 10° NNW 05:35:51 42° W 05:41:46 10° SSW
COSMO-SKYMED 1 3.1 05:31:50 10° SSW 05:35:53 38° W 05:39:57 10° NNW
Cosmos 1908 3.2 05:32:04 10° N 05:35:55 82° W 05:39:44 10° S
NOSS 3-4 (A) 3.7 05:31:06 10° WSW 05:37:00 52° NW 05:43:19 10° NNE
NOSS 3-4 (C) 3.7 05:31:10 10° WSW 05:37:06 52° NW 05:43:25 10° NNE
H-2A R/B 4.4 05:36:19 10° NW 05:37:49 12° WNW 05:39:20 10° W
Cosmos 2341 Rocket 4.0 05:31:43 10° SSW 05:37:56 71° W 05:44:11 10° N
Cosmos 44 Rocket 3.3 05:33:27 10° NW 05:38:13 87° NE 05:42:54 10° SE
Cosmos 44 4.3 05:36:01 10° WNW 05:39:21 22° WSW 05:42:38 10° SSW
USA 116 3.9 05:35:40 10° S 05:39:29 46° W 05:42:54 10° NNW
Cosmos 1140 Rocket 3.9 05:34:49 10° SW 05:39:44 42° WNW 05:44:39 10° N
In-Cosmos 22 4.3 05:37:12 10° SSW 05:42:24 53° WNW 05:47:45 10° N
